Weather History for Monett, MO

Change the Weather History Date:

Wednesday, December 19, 2012

  Actual Average (KJLN) Record (KJLN)
Temperature  
Mean Temperature 48 °F 36 °F  
Max Temperature 60 °F 46 °F 72 °F (1978)
Min Temperature 37 °F 27 °F 0 °F (1983)
Degree Days  
Heating Degree Days 16 29  
Month to date heating degree days 505  
Since 1 July heating degree days 1262  
Cooling Degree Days 0 0  
Month to date cooling degree days 0  
Year to date cooling degree days 1698  
Moisture  
Dew Point 43 °F    
Average Humidity 74    
Maximum Humidity 88    
Minimum Humidity 66    
Precipitation  
Precipitation 0.00 in 0.09 in 1.85 in (1987)
Month to date precipitation 1.85  
Year to date precipitation 45.58  
Sea Level Pressure  
Sea Level Pressure 29.67 in    
Wind  
Wind Speed 10 mph (SE)    
Max Wind Speed 18 mph    
Max Gust Speed 24 mph    
Visibility 10 miles    
Events Thunderstorm    
T = Trace of Precipitation, MM = Missing Value Source: NWS Daily Summary

Daily Weather History Graph

Daily Weather History Graph

Search for Another Location

Airport:

Trip Planner

Search our weather history database for the weather conditions in past years. The results will help you decide how hot, cold, wet, or windy it might be!

Date:

Astronomy

Dec. 19, 2012 Rise Set
Actual Time 7:24 AM CST 5:02 PM CST
Civil Twilight 6:55 AM CST 5:31 PM CST
Nautical Twilight 6:22 AM CST 6:03 PM CST
Astronomical Twilight 5:51 AM CST 6:35 PM CST
Moon 11:43 AM CST (12/19) No Moon Set
Length of Visible Light 10h 35m
Length of Day
9h 37m
Waxing Crescent, 45% of the Moon is Illuminated
Dec 19
Waxing Crescent
Dec 19
First Quarter
Dec 28
Full
Jan 4
Last Quarter
Jan 11
New

Hourly Weather History & Observations

Time (CST) Temp. Windchill Dew Point Humidity Pressure Visibility Wind Dir Wind Speed Gust Speed Precip Events Conditions
12:15 AM 37.4 °F 32.1 °F 32.0 °F 81% 29.85 in 10.0 mi East 6.9 mph - N/A   Clear
12:35 AM 41.0 °F 35.8 °F 32.0 °F 70% 29.84 in 10.0 mi East 8.1 mph - N/A   Clear
12:55 AM 41.0 °F 35.8 °F 32.0 °F 70% 29.84 in 10.0 mi East 8.1 mph - N/A   Clear
1:15 AM 42.8 °F 38.6 °F 32.0 °F 66% 29.84 in 10.0 mi East 6.9 mph - N/A   Clear
1:35 AM 41.0 °F 35.8 °F 32.0 °F 70% 29.82 in 10.0 mi East 8.1 mph - N/A   Clear
1:55 AM 41.0 °F 35.8 °F 32.0 °F 70% 29.82 in 10.0 mi East 8.1 mph - N/A   Clear
2:15 AM 41.0 °F 35.8 °F 32.0 °F 70% 29.83 in 10.0 mi East 8.1 mph - N/A   Clear
2:35 AM 41.0 °F 36.4 °F 32.0 °F 70% 29.83 in 10.0 mi East 6.9 mph - N/A   Clear
2:55 AM 42.8 °F 38.6 °F 32.0 °F 66% 29.84 in 10.0 mi East 6.9 mph - N/A   Clear
3:15 AM 41.0 °F 37.1 °F 32.0 °F 70% 29.84 in 10.0 mi East 5.8 mph - N/A   Clear
3:35 AM 41.0 °F 35.2 °F 33.8 °F 76% 29.83 in 10.0 mi ENE 9.2 mph - N/A   Clear
3:55 AM 41.0 °F 35.2 °F 33.8 °F 76% 29.82 in 10.0 mi ENE 9.2 mph - N/A   Clear
4:15 AM 41.0 °F 34.7 °F 33.8 °F 76% 29.80 in 10.0 mi East 10.4 mph - N/A   Clear
4:35 AM 41.0 °F 35.2 °F 33.8 °F 76% 29.81 in 10.0 mi East 9.2 mph - N/A   Clear
4:55 AM 41.0 °F 34.7 °F 33.8 °F 76% 29.80 in 10.0 mi East 10.4 mph - N/A   Clear
5:15 AM 42.8 °F 35.8 °F 33.8 °F 70% 29.78 in 10.0 mi East 13.8 mph - N/A   Clear
5:35 AM 42.8 °F 36.6 °F 33.8 °F 70% 29.79 in 10.0 mi East 11.5 mph - N/A   Clear
5:55 AM 42.8 °F 36.6 °F 33.8 °F 70% 29.78 in 10.0 mi East 11.5 mph - N/A   Clear
6:15 AM 42.8 °F 36.6 °F 33.8 °F 70% 29.78 in 10.0 mi ESE 11.5 mph 19.6 mph N/A   Clear
6:35 AM 41.0 °F 33.5 °F 33.8 °F 76% 29.78 in 10.0 mi ESE 13.8 mph - N/A   Clear
6:55 AM 41.0 °F 33.1 °F 33.8 °F 76% 29.77 in 10.0 mi ESE 15.0 mph - N/A   Clear
7:15 AM 42.8 °F 34.5 °F 33.8 °F 70% 29.76 in 10.0 mi ESE 18.4 mph 24.2 mph N/A   Clear
7:35 AM 42.8 °F 34.8 °F 33.8 °F 70% 29.76 in 10.0 mi ESE 17.3 mph 21.9 mph N/A   Clear
7:55 AM 42.8 °F 35.1 °F 33.8 °F 70% 29.76 in 10.0 mi ESE 16.1 mph - N/A   Clear
8:15 AM 42.8 °F 35.4 °F 33.8 °F 70% 29.76 in 10.0 mi ESE 15.0 mph - N/A   Clear
8:35 AM 42.8 °F 35.4 °F 33.8 °F 70% 29.76 in 10.0 mi ESE 15.0 mph 20.7 mph N/A   Clear
8:55 AM 44.6 °F 37.8 °F 35.6 °F 71% 29.75 in 10.0 mi ESE 15.0 mph 19.6 mph N/A   Clear
9:15 AM 44.6 °F 37.4 °F 35.6 °F 71% 29.75 in 10.0 mi ESE 16.1 mph - N/A   Mostly Cloudy
9:35 AM 46.4 °F 39.8 °F 37.4 °F 71% 29.74 in 10.0 mi ESE 16.1 mph - N/A   Overcast
9:55 AM 46.4 °F 39.8 °F 37.4 °F 71% 29.74 in 10.0 mi ESE 16.1 mph - N/A   Overcast
10:15 AM 48.2 °F - 37.4 °F 66% 29.75 in 10.0 mi ESE 13.8 mph - N/A   Overcast
10:35 AM 50.0 °F - 39.2 °F 66% 29.74 in 10.0 mi SE 11.5 mph - N/A   Scattered Clouds
10:55 AM 50.0 °F - 41.0 °F 71% 29.75 in 10.0 mi SE 8.1 mph 17.3 mph N/A   Clear
11:15 AM 51.8 °F - 41.0 °F 67% 29.72 in 10.0 mi SE 10.4 mph - N/A   Clear
11:35 AM 53.6 °F - 42.8 °F 67% 29.70 in 10.0 mi SE 10.4 mph - N/A   Clear
11:55 AM 55.4 °F - 44.6 °F 67% 29.71 in 10.0 mi SSE 9.2 mph - N/A   Clear
12:15 PM 55.4 °F - 44.6 °F 67% 29.68 in 10.0 mi SSE 12.7 mph - N/A   Mostly Cloudy
12:35 PM 55.4 °F - 46.4 °F 72% 29.67 in 10.0 mi SE 12.7 mph 17.3 mph N/A   Overcast
12:55 PM 55.4 °F - 46.4 °F 72% 29.65 in 10.0 mi SE 12.7 mph 20.7 mph N/A   Overcast
1:15 PM 57.2 °F - 46.4 °F 67% 29.65 in 10.0 mi SE 8.1 mph - N/A   Overcast
1:35 PM 57.2 °F - 50.0 °F 77% 29.66 in 10.0 mi SSE 4.6 mph - N/A   Overcast
1:55 PM 57.2 °F - 50.0 °F 77% 29.63 in 10.0 mi SE 8.1 mph - N/A   Overcast
2:15 PM 55.4 °F - 48.2 °F 77% 29.62 in 10.0 mi SE 9.2 mph - N/A   Overcast
2:35 PM 55.4 °F - 48.2 °F 77% 29.62 in 10.0 mi ESE 6.9 mph - N/A   Overcast
2:55 PM 57.2 °F - 50.0 °F 77% 29.61 in 10.0 mi ESE 8.1 mph - N/A   Overcast
3:15 PM 59.0 °F - 50.0 °F 72% 29.60 in 10.0 mi ESE 6.9 mph - N/A   Mostly Cloudy
3:35 PM 59.0 °F - 50.0 °F 72% 29.59 in 10.0 mi ESE 9.2 mph - N/A   Mostly Cloudy
3:55 PM 59.0 °F - 51.8 °F 77% 29.59 in 10.0 mi SE 9.2 mph - N/A   Mostly Cloudy
4:15 PM 59.0 °F - 51.8 °F 77% 29.59 in 10.0 mi ESE 6.9 mph - N/A   Mostly Cloudy
4:55 PM 59.0 °F - 51.8 °F 77% 29.57 in 10.0 mi SE 11.5 mph - N/A   Overcast
5:15 PM 59.0 °F - 51.8 °F 77% 29.56 in 10.0 mi SE 10.4 mph 17.3 mph N/A   Overcast
5:35 PM 59.0 °F - 53.6 °F 82% 29.56 in 10.0 mi SE 12.7 mph 18.4 mph N/A   Overcast
5:55 PM 59.0 °F - 53.6 °F 82% 29.56 in 10.0 mi SSE 12.7 mph 17.3 mph N/A   Overcast
6:15 PM 59.0 °F - 55.4 °F 88% 29.54 in 10.0 mi SSE 15.0 mph 20.7 mph N/A   Overcast
6:35 PM 59.0 °F - 55.4 °F 88% 29.53 in 10.0 mi SE 15.0 mph 20.7 mph N/A   Mostly Cloudy
6:55 PM 59.0 °F - 55.4 °F 88% 29.54 in 10.0 mi SE 11.5 mph - N/A   Mostly Cloudy
7:15 PM 59.0 °F - 55.4 °F 88% 29.54 in 10.0 mi SSE 10.4 mph - N/A   Overcast
7:35 PM 60.8 °F - 55.4 °F 82% 29.54 in 10.0 mi SSE 13.8 mph 18.4 mph N/A   Overcast
7:55 PM 60.8 °F - 55.4 °F 82% 29.53 in 10.0 mi SSE 11.5 mph 18.4 mph N/A   Overcast
8:15 PM 60.8 °F - 55.4 °F 82% 29.52 in 10.0 mi SSE 11.5 mph - N/A   Mostly Cloudy
8:35 PM 59.0 °F - 55.4 °F 88% 29.50 in 10.0 mi SSE 11.5 mph - N/A   Mostly Cloudy
8:55 PM 60.8 °F - 55.4 °F 82% 29.48 in 10.0 mi SSE 12.7 mph - N/A Thunderstorm Mostly Cloudy
9:15 PM 60.8 °F - 55.4 °F 82% 29.47 in 10.0 mi South 12.7 mph 23.0 mph N/A Thunderstorm Mostly Cloudy
9:35 PM 60.8 °F - 53.6 °F 77% 29.44 in 10.0 mi SSE 10.4 mph - N/A   Scattered Clouds
9:55 PM 60.8 °F - 51.8 °F 72% 29.44 in 10.0 mi South 13.8 mph - N/A Thunderstorm Scattered Clouds
10:15 PM 60.8 °F - 53.6 °F 77% 29.42 in 10.0 mi South 11.5 mph 17.3 mph N/A   Scattered Clouds
10:35 PM 60.8 °F - 53.6 °F 77% 29.43 in 10.0 mi South 17.3 mph 21.9 mph N/A   Mostly Cloudy
10:55 PM 60.8 °F - 51.8 °F 72% 29.43 in 10.0 mi South 13.8 mph 23.0 mph N/A Thunderstorm Mostly Cloudy
11:15 PM 60.8 °F - 51.8 °F 72% 29.42 in 10.0 mi South 13.8 mph - N/A   Mostly Cloudy
11:35 PM 60.8 °F - 50.0 °F 68% 29.40 in 10.0 mi South 12.7 mph - N/A   Overcast
11:55 PM 60.8 °F - 50.0 °F 68% 29.40 in 10.0 mi South 13.8 mph - N/A   Overcast